AMX1417 MMTM-MMMX

Flight info

Callsign AMX1417
Flight time 0h 41m
Altitude 33000
Route ONBUL1A TAM UT102 PAZ/N0451F320 UT154 ENAGA ENAGA3B
Aircraft B739/M-SDE2E3FGHIRWXY/LB1

Departure

Time 2026-05-09 05:52
Airport General Francisco Javier Mina International Airport (MMTM)

Arrival

Time 2026-05-09 06:34
Airport Mexico City Benito Juárez International Airport (MMMX)
Time Latitude Longitude Altitude Speed Heading
2026-05-09 05:26 22.28983 -97.86917 99 ft 0 kts 234°
2026-05-09 05:39 22.28994 -97.86898 99 ft 3 kts 251°
2026-05-09 05:40 22.28998 -97.86876 98 ft 2 kts 277°
2026-05-09 05:40 22.28991 -97.86855 100 ft 3 kts 314°
2026-05-09 05:40 22.28983 -97.86847 100 ft 1 kts 324°
2026-05-09 05:40 22.28982 -97.86847 100 ft 0 kts 324°
2026-05-09 05:47 22.28986 -97.86849 100 ft 3 kts 324°
2026-05-09 05:47 22.29021 -97.86876 100 ft 8 kts 324°
2026-05-09 05:48 22.29057 -97.86903 100 ft 2 kts 324°
2026-05-09 05:48 22.29070 -97.86914 100 ft 2 kts 324°
2026-05-09 05:48 22.29091 -97.86928 100 ft 5 kts 327°
2026-05-09 05:48 22.29138 -97.86912 99 ft 11 kts 44°
2026-05-09 05:49 22.29223 -97.86881 99 ft 16 kts 356°
2026-05-09 05:49 22.29338 -97.86892 98 ft 17 kts 355°
2026-05-09 05:49 22.29452 -97.86903 98 ft 16 kts 355°
2026-05-09 05:49 22.29559 -97.86928 98 ft 16 kts 330°
2026-05-09 05:50 22.29651 -97.86994 97 ft 17 kts 326°
2026-05-09 05:50 22.29759 -97.87073 98 ft 20 kts 326°
2026-05-09 05:50 22.29882 -97.87167 100 ft 23 kts 324°
2026-05-09 05:50 22.30016 -97.87270 99 ft 24 kts 324°
2026-05-09 05:51 22.30127 -97.87389 100 ft 20 kts 294°
2026-05-09 05:51 22.30185 -97.87432 98 ft 9 kts 40°
2026-05-09 05:51 22.30179 -97.87391 99 ft 0 kts 144°
2026-05-09 05:51 22.30174 -97.87387 98 ft 5 kts 144°
2026-05-09 05:52 22.30022 -97.87272 99 ft 64 kts 145°
2026-05-09 05:52 22.29430 -97.86827 98 ft 140 kts 145°
2026-05-09 05:52 22.28476 -97.86107 241 ft 186 kts 144°
2026-05-09 05:52 22.27377 -97.85279 934 ft 201 kts 144°
2026-05-09 05:53 22.26243 -97.84373 1818 ft 202 kts 141°
2026-05-09 05:53 22.25500 -97.83720 2174 ft 216 kts 139°
2026-05-09 05:53 22.23870 -97.82232 2571 ft 246 kts 140°
2026-05-09 05:53 22.22489 -97.81004 3026 ft 264 kts 141°
2026-05-09 05:54 22.21538 -97.80174 3583 ft 265 kts 141°
2026-05-09 05:54 22.19590 -97.78505 4737 ft 270 kts 142°
2026-05-09 05:54 22.18102 -97.77250 5552 ft 274 kts 142°
2026-05-09 05:54 22.17101 -97.76408 6074 ft 277 kts 142°
2026-05-09 05:55 22.15568 -97.75126 6864 ft 280 kts 145°
2026-05-09 05:55 22.13776 -97.74307 7540 ft 284 kts 174°
2026-05-09 05:55 22.11821 -97.74535 8137 ft 287 kts 201°
2026-05-09 05:55 22.10139 -97.75697 8718 ft 291 kts 226°
2026-05-09 05:56 22.09010 -97.77521 9324 ft 295 kts 239°
2026-05-09 05:56 22.07641 -97.79146 9872 ft 297 kts 211°
2026-05-09 05:56 22.05717 -97.80000 10290 ft 307 kts 192°
2026-05-09 05:56 22.03525 -97.80066 10417 ft 325 kts 172°
2026-05-09 05:57 22.01276 -97.79596 10556 ft 342 kts 167°
2026-05-09 05:57 21.98905 -97.78996 10744 ft 356 kts 167°
2026-05-09 05:57 21.96470 -97.78370 11145 ft 363 kts 167°
2026-05-09 05:57 21.94001 -97.77754 11662 ft 366 kts 167°
2026-05-09 05:58 21.91508 -97.77151 12200 ft 368 kts 168°
2026-05-09 05:58 21.88995 -97.76551 12717 ft 372 kts 168°
2026-05-09 05:58 21.86463 -97.75945 13312 ft 373 kts 168°
2026-05-09 05:58 21.83920 -97.75330 13901 ft 375 kts 168°
2026-05-09 05:59 21.81365 -97.74709 14472 ft 377 kts 168°
2026-05-09 05:59 21.78795 -97.74085 15045 ft 380 kts 168°
2026-05-09 05:59 21.76211 -97.73457 15620 ft 382 kts 168°
2026-05-09 05:59 21.73609 -97.72825 16195 ft 384 kts 168°
2026-05-09 06:00 21.70993 -97.72191 16745 ft 386 kts 168°
2026-05-09 06:00 21.68362 -97.71553 17288 ft 388 kts 168°
2026-05-09 06:00 21.65720 -97.70913 17830 ft 390 kts 168°
2026-05-09 06:00 21.63062 -97.70269 18351 ft 392 kts 168°
2026-05-09 06:01 21.60394 -97.69625 18841 ft 395 kts 168°
2026-05-09 06:01 21.57693 -97.68971 19292 ft 398 kts 168°
2026-05-09 06:01 21.55047 -97.68330 20088 ft 389 kts 168°
2026-05-09 06:01 21.52437 -97.67698 20934 ft 382 kts 168°
2026-05-09 06:02 21.49833 -97.67069 21408 ft 385 kts 168°
2026-05-09 06:02 21.47202 -97.66434 21772 ft 391 kts 168°
2026-05-09 06:02 21.44534 -97.65789 22183 ft 394 kts 168°
2026-05-09 06:02 21.41850 -97.65141 22610 ft 396 kts 168°
2026-05-09 06:03 21.39150 -97.64490 23018 ft 398 kts 168°
2026-05-09 06:03 21.36440 -97.63836 23408 ft 401 kts 168°
2026-05-09 06:03 21.33707 -97.63179 23772 ft 403 kts 168°
2026-05-09 06:03 21.30960 -97.62517 24147 ft 406 kts 168°
2026-05-09 06:04 21.28200 -97.61851 24498 ft 408 kts 168°
2026-05-09 06:04 21.25418 -97.61181 24841 ft 410 kts 168°
2026-05-09 06:04 21.22662 -97.60518 25172 ft 413 kts 168°
2026-05-09 06:04 21.19854 -97.59841 25518 ft 415 kts 168°
2026-05-09 06:05 21.17030 -97.59162 25866 ft 417 kts 168°
2026-05-09 06:05 21.14190 -97.58478 26212 ft 419 kts 168°
2026-05-09 06:05 21.11344 -97.57793 26564 ft 420 kts 168°
2026-05-09 06:05 21.08491 -97.57107 26991 ft 419 kts 168°
2026-05-09 06:06 21.05646 -97.56422 27444 ft 419 kts 168°
2026-05-09 06:06 21.02802 -97.55740 27912 ft 417 kts 168°
2026-05-09 06:06 20.99971 -97.55061 28362 ft 416 kts 168°
2026-05-09 06:06 20.97147 -97.54384 28806 ft 416 kts 168°
2026-05-09 06:07 20.94331 -97.53708 29260 ft 414 kts 168°
2026-05-09 06:07 20.91521 -97.53034 29714 ft 413 kts 168°
2026-05-09 06:07 20.88716 -97.52363 30141 ft 413 kts 168°
2026-05-09 06:07 20.85918 -97.51693 30574 ft 412 kts 168°
2026-05-09 06:08 20.83118 -97.51023 30913 ft 413 kts 168°
2026-05-09 06:08 20.80323 -97.50353 30898 ft 420 kts 168°
2026-05-09 06:08 20.74506 -97.48961 30933 ft 431 kts 168°
2026-05-09 06:09 20.68621 -97.47555 30939 ft 441 kts 168°
2026-05-09 06:09 20.62528 -97.46774 30920 ft 443 kts 191°
2026-05-09 06:10 20.59601 -97.47731 30930 ft 442 kts 206°
2026-05-09 06:10 20.56993 -97.49451 30935 ft 441 kts 221°
2026-05-09 06:10 20.52885 -97.54323 30932 ft 443 kts 230°
2026-05-09 06:11 20.48973 -97.59413 30939 ft 444 kts 230°
2026-05-09 06:11 20.45059 -97.64438 30915 ft 430 kts 230°
2026-05-09 06:12 20.43142 -97.66871 30542 ft 425 kts 230°
2026-05-09 06:12 20.41274 -97.69230 30126 ft 420 kts 230°
2026-05-09 06:12 20.39398 -97.71592 29694 ft 416 kts 229°
2026-05-09 06:12 20.37534 -97.73938 29204 ft 412 kts 229°
2026-05-09 06:13 20.35691 -97.76257 28733 ft 409 kts 229°
2026-05-09 06:13 20.33859 -97.78562 28254 ft 406 kts 229°
2026-05-09 06:13 20.32043 -97.80846 27782 ft 402 kts 229°
2026-05-09 06:13 20.30237 -97.83117 27312 ft 399 kts 229°
2026-05-09 06:14 20.28448 -97.85367 26843 ft 397 kts 229°
2026-05-09 06:14 20.26671 -97.87601 26372 ft 393 kts 229°
2026-05-09 06:14 20.24906 -97.89817 25921 ft 391 kts 229°
2026-05-09 06:14 20.23154 -97.92018 25464 ft 388 kts 229°
2026-05-09 06:15 20.21414 -97.94205 25007 ft 386 kts 229°
2026-05-09 06:15 20.19700 -97.96355 24554 ft 383 kts 229°
2026-05-09 06:15 20.17975 -97.98518 24109 ft 381 kts 229°
2026-05-09 06:15 20.16267 -98.00661 23664 ft 378 kts 229°
2026-05-09 06:16 20.14589 -98.02762 23224 ft 376 kts 229°
2026-05-09 06:16 20.12899 -98.04879 22783 ft 374 kts 229°
2026-05-09 06:16 20.11216 -98.06984 22345 ft 372 kts 229°
2026-05-09 06:16 20.09543 -98.09074 21900 ft 369 kts 229°
2026-05-09 06:17 20.07880 -98.11154 21460 ft 367 kts 229°
2026-05-09 06:17 20.06233 -98.13209 21033 ft 364 kts 229°
2026-05-09 06:17 20.04596 -98.15255 20606 ft 361 kts 229°
2026-05-09 06:17 20.02967 -98.17273 20190 ft 358 kts 225°
2026-05-09 06:18 20.01001 -98.18804 19785 ft 355 kts 207°
2026-05-09 06:18 19.99013 -98.20302 19532 ft 348 kts 226°
2026-05-09 06:18 19.97684 -98.22414 19278 ft 344 kts 246°
2026-05-09 06:18 19.96908 -98.24803 19042 ft 341 kts 250°
2026-05-09 06:19 19.96090 -98.27169 18795 ft 344 kts 247°
2026-05-09 06:19 19.95162 -98.29529 18536 ft 348 kts 245°
2026-05-09 06:19 19.94254 -98.31914 18267 ft 347 kts 248°
2026-05-09 06:19 19.93376 -98.34299 18015 ft 345 kts 248°
2026-05-09 06:20 19.92493 -98.36662 17782 ft 344 kts 247°
2026-05-09 06:20 19.91606 -98.39021 17527 ft 342 kts 247°
2026-05-09 06:20 19.90727 -98.41343 17437 ft 333 kts 247°
2026-05-09 06:20 19.89870 -98.43597 17276 ft 324 kts 247°
2026-05-09 06:21 19.89038 -98.45787 17148 ft 315 kts 247°
2026-05-09 06:21 19.88221 -98.47938 16806 ft 313 kts 247°
2026-05-09 06:21 19.87421 -98.50045 16480 ft 311 kts 247°
2026-05-09 06:21 19.86612 -98.52173 16138 ft 309 kts 247°
2026-05-09 06:22 19.86047 -98.54361 15758 ft 309 kts 268°
2026-05-09 06:22 19.86383 -98.56597 15445 ft 307 kts 291°
2026-05-09 06:22 19.87363 -98.58607 15123 ft 306 kts 299°
2026-05-09 06:22 19.88421 -98.60531 14769 ft 305 kts 300°
2026-05-09 06:23 19.89488 -98.62482 14430 ft 304 kts 297°
2026-05-09 06:23 19.90132 -98.64596 14053 ft 302 kts 272°
2026-05-09 06:23 19.89823 -98.66762 13770 ft 296 kts 246°
2026-05-09 06:23 19.88711 -98.68539 13678 ft 287 kts 224°
2026-05-09 06:24 19.87088 -98.69767 13559 ft 290 kts 203°
2026-05-09 06:24 19.85167 -98.70510 13490 ft 297 kts 198°
2026-05-09 06:24 19.83184 -98.71183 13364 ft 300 kts 197°
2026-05-09 06:24 19.81199 -98.71841 13237 ft 298 kts 197°
2026-05-09 06:25 19.79349 -98.72457 13124 ft 296 kts 198°
2026-05-09 06:25 19.77390 -98.73116 13011 ft 294 kts 198°
2026-05-09 06:25 19.75468 -98.73767 12903 ft 293 kts 198°
2026-05-09 06:25 19.73531 -98.74425 12789 ft 291 kts 198°
2026-05-09 06:26 19.71604 -98.75085 12684 ft 290 kts 198°
2026-05-09 06:26 19.69680 -98.75745 12576 ft 290 kts 198°
2026-05-09 06:26 19.67769 -98.76402 12457 ft 285 kts 198°
2026-05-09 06:26 19.65913 -98.77039 12339 ft 276 kts 198°
2026-05-09 06:27 19.64113 -98.77657 12224 ft 267 kts 198°
2026-05-09 06:27 19.62373 -98.78255 12115 ft 258 kts 198°
2026-05-09 06:27 19.60688 -98.78831 12012 ft 251 kts 198°
2026-05-09 06:27 19.59128 -98.79595 11872 ft 248 kts 222°
2026-05-09 06:28 19.58069 -98.81025 11708 ft 246 kts 239°
2026-05-09 06:28 19.57224 -98.82547 11484 ft 239 kts 240°
2026-05-09 06:28 19.56400 -98.84051 11216 ft 232 kts 240°
2026-05-09 06:28 19.55598 -98.85509 10937 ft 226 kts 240°
2026-05-09 06:29 19.54814 -98.86930 10702 ft 221 kts 239°
2026-05-09 06:29 19.54036 -98.88331 10472 ft 220 kts 239°
2026-05-09 06:29 19.53258 -98.89729 10257 ft 221 kts 239°
2026-05-09 06:29 19.52475 -98.91137 10072 ft 222 kts 239°
2026-05-09 06:30 19.51693 -98.92533 9989 ft 217 kts 239°
2026-05-09 06:30 19.50932 -98.93892 9725 ft 211 kts 239°
2026-05-09 06:30 19.50197 -98.95205 9464 ft 205 kts 239°
2026-05-09 06:30 19.49484 -98.96476 9216 ft 195 kts 239°
2026-05-09 06:31 19.48807 -98.97683 8937 ft 185 kts 239°
2026-05-09 06:31 19.48157 -98.98843 8721 ft 185 kts 239°
2026-05-09 06:31 19.47509 -98.99998 8481 ft 180 kts 238°
2026-05-09 06:31 19.46882 -99.01118 8237 ft 177 kts 239°
2026-05-09 06:32 19.46255 -99.02236 8003 ft 177 kts 239°
2026-05-09 06:32 19.45628 -99.03354 7783 ft 175 kts 239°
2026-05-09 06:32 19.45014 -99.04458 7545 ft 174 kts 239°
2026-05-09 06:33 19.43824 -99.06581 7302 ft 145 kts 239°
2026-05-09 06:33 19.43382 -99.07369 7303 ft 103 kts 239°
2026-05-09 06:33 19.43090 -99.07888 7303 ft 61 kts 239°
2026-05-09 06:34 19.42883 -99.08158 7302 ft 10 kts 209°
2026-05-09 06:34 19.42825 -99.08192 7302 ft 9 kts 209°
2026-05-09 06:34 19.42767 -99.08224 7302 ft 9 kts 201°
2026-05-09 06:34 19.42707 -99.08214 7302 ft 9 kts 151°
2026-05-09 06:35 19.42654 -99.08181 7302 ft 9 kts 149°
2026-05-09 06:35 19.42602 -99.08149 7302 ft 9 kts 149°
2026-05-09 06:35 19.42551 -99.08117 7302 ft 8 kts 149°
2026-05-09 06:35 19.42502 -99.08087 7302 ft 8 kts 149°
2026-05-09 06:36 19.42455 -99.08057 7302 ft 8 kts 149°
2026-05-09 06:36 19.42410 -99.08029 7302 ft 8 kts 149°
2026-05-09 06:36 19.42360 -99.07988 7302 ft 9 kts 138°
2026-05-09 06:36 19.42310 -99.07989 7302 ft 7 kts 210°
2026-05-09 06:37 19.42288 -99.08003 7302 ft 2 kts 211°
2026-05-09 06:37 19.42286 -99.08005 7302 ft 0 kts 211°